Dades meteomassalio
Diari Summary for Febrer 16, 2018 Units:  Metric    English   Both
« Previous Day
Next Day »
Diari Semanal Mensual Anual Personalitzat
  Maxima: Minima: Mijana:
Temperatura: -17.8 °C -14.7 °C -12 °C
Rosada: -17.8 °C -15.6 °C -13.6 °C
Humitat: Humidity % 64 % 83 %
Velocitat del vent: 0 km/h 0 km/h 0.8 km/h
Racha vent: 0 km/h - -
Vent:- - East
Pressio: 0 hPa 34659.1 hPa -
Pluja: 0 mm    
Historical Graphs
 
 
Tabular Data for Febrer 16, 2018
Time Temperature Dew Point Pressure Wind Wind Speed Wind Gust Humidity Rainfall Rate (Hourly) solar Conditions
-17.8 °C -17.8 °C 0 hPa Calm     Humidity % 0 mm SolarRadiationWatts/m^2 W/m2 Conditions
00:04 -14.1 °C -15 °C 34784.4 hPa Calm     89 % 0 mm 0.0 W/m2 CLR
00:09 -14.4 °C -15.3 °C 34784.4 hPa Calm     89 % 0 mm 0.0 W/m2 CLR
00:14 -14.4 °C -15.3 °C 34784.4 hPa Calm     89 % 0 mm 0.0 W/m2 CLR
00:19 -14.4 °C -15.3 °C 34784.4 hPa Calm     89 % 0 mm 0.0 W/m2 CLR
00:24 -14.4 °C -15.3 °C 34784.4 hPa Calm     89 % 0 mm 0.0 W/m2 CLR
00:29 -14.4 °C -15.3 °C 34784.4 hPa Calm     89 % 0 mm 0.0 W/m2 CLR
00:34 -14.4 °C -15.3 °C 34784.4 hPa Calm     89 % 0 mm 0.0 W/m2 CLR
00:39 -14.4 °C -15.3 °C 34784.4 hPa Calm     89 % 0 mm 0.0 W/m2 CLR
00:44 -14.4 °C -15.3 °C 34784.4 hPa Calm     89 % 0 mm 0.0 W/m2 CLR
00:49 -14.7 °C -15.6 °C 34784.4 hPa Calm     89 % 0 mm 0.0 W/m2 CLR
00:54 -14.7 °C -15.6 °C 34784.4 hPa Calm     89 % 0 mm 0.0 W/m2 CLR
00:59 -14.7 °C -15.6 °C 34784.4 hPa Calm     89 % 0 mm 0.0 W/m2 CLR
01:04 -14.7 °C -15.6 °C 34774.2 hPa Calm     89 % 0 mm 0.0 W/m2 CLR
01:09 -14.4 °C -15.2 °C 34774.2 hPa Calm     90 % 0 mm 0.0 W/m2 CLR
01:14 -14.4 °C -15.2 °C 34774.2 hPa Calm     90 % 0 mm 0.0 W/m2 CLR
01:19 -14.4 °C -15.2 °C 34774.2 hPa Calm     90 % 0 mm 0.0 W/m2 CLR
01:24 -14.4 °C -15.2 °C 34774.2 hPa Calm     90 % 0 mm 0.0 W/m2 CLR
01:29 -14.1 °C -14.9 °C 34774.2 hPa Calm     90 % 0 mm 0.0 W/m2 CLR
01:34 -14.1 °C -14.9 °C 34774.2 hPa Calm     90 % 0 mm 0.0 W/m2 CLR
01:39 -14.1 °C -14.9 °C 34774.2 hPa Calm     90 % 0 mm 0.0 W/m2 CLR
01:44 -14.4 °C -15.2 °C 34774.2 hPa Calm     90 % 0 mm 0.0 W/m2 CLR
01:49 -14.1 °C -14.9 °C 34774.2 hPa Calm     90 % 0 mm 0.0 W/m2 CLR
01:54 -14.1 °C -14.8 °C 34774.2 hPa Calm     91 % 0 mm 0.0 W/m2 CLR
01:59 -14.1 °C -14.8 °C 34774.2 hPa Calm     91 % 0 mm 0.0 W/m2 CLR
02:04 -14.1 °C -14.8 °C 34774.2 hPa Calm     91 % 0 mm 0.0 W/m2 CLR
02:09 -14.1 °C -14.8 °C 34774.2 hPa Calm     91 % 0 mm 0.0 W/m2 CLR
02:14 -14.4 °C -15.1 °C 34774.2 hPa Calm     91 % 0 mm 0.0 W/m2 CLR
02:19 -14.1 °C -14.8 °C 34774.2 hPa Calm     91 % 0 mm 0.0 W/m2 CLR
02:24 -14.1 °C -14.8 °C 34774.2 hPa Calm     91 % 0 mm 0.0 W/m2 CLR
02:29 -14.1 °C -14.8 °C 34774.2 hPa Calm     91 % 0 mm 0.0 W/m2 CLR
02:34 -14.4 °C -15.1 °C 34774.2 hPa Calm     91 % 0 mm 0.0 W/m2 CLR
02:39 -14.1 °C -14.8 °C 34774.2 hPa Calm     91 % 0 mm 0.0 W/m2 CLR
02:44 -14.4 °C -15.1 °C 34774.2 hPa Calm     91 % 0 mm 0.0 W/m2 CLR
02:49 -14.4 °C -15.1 °C 34774.2 hPa Calm     91 % 0 mm 0.0 W/m2 CLR
02:54 -14.4 °C -15.1 °C 34774.2 hPa Calm     91 % 0 mm 0.0 W/m2 CLR
02:59 -14.4 °C -15.1 °C 34774.2 hPa Calm     92 % 0 mm 0.0 W/m2 CLR
03:04 -14.4 °C -15.1 °C 34774.2 hPa Calm     91 % 0 mm 0.0 W/m2 CLR
03:09 -14.4 °C -15.1 °C 34774.2 hPa Calm     91 % 0 mm 0.0 W/m2 CLR
03:14 -14.4 °C -15.1 °C 34774.2 hPa Calm     91 % 0 mm 0.0 W/m2 CLR
03:19 -14.4 °C -15.1 °C 34760.7 hPa Calm     91 % 0 mm 0.0 W/m2 CLR
03:24 -14.4 °C -15.1 °C 34760.7 hPa Calm     91 % 0 mm 0.0 W/m2 CLR
03:29 -14.4 °C -15.1 °C 34774.2 hPa Calm     91 % 0 mm 0.0 W/m2 CLR
03:34 -14.4 °C -15.1 °C 34760.7 hPa Calm     92 % 0 mm 0.0 W/m2 CLR
03:40 -14.4 °C -15.1 °C 34760.7 hPa Calm     91 % 0 mm 0.0 W/m2 CLR
03:45 -14.7 °C -15.4 °C 34760.7 hPa Calm     92 % 0 mm 0.0 W/m2 CLR
03:50 -14.7 °C -15.4 °C 34760.7 hPa Calm     91 % 0 mm 0.0 W/m2 CLR
03:55 -14.7 °C -15.4 °C 34760.7 hPa Calm     92 % 0 mm 0.0 W/m2 CLR
04:00 -14.7 °C -15.4 °C 34760.7 hPa Calm     92 % 0 mm 0.0 W/m2 CLR
04:05 -14.4 °C -15.1 °C 34750.5 hPa Calm     91 % 0 mm 0.0 W/m2 CLR
04:10 -14.4 °C -15.1 °C 34750.5 hPa Calm     92 % 0 mm 0.0 W/m2 CLR
04:15 -14.4 °C -15.1 °C 34760.7 hPa Calm     92 % 0 mm 0.0 W/m2 CLR
04:20 -14.4 °C -15.1 °C 34750.5 hPa Calm     92 % 0 mm 0.0 W/m2 CLR
04:25 -14.4 °C -15.1 °C 34750.5 hPa Calm     92 % 0 mm 0.0 W/m2 CLR
04:30 -14.4 °C -15.1 °C 34760.7 hPa Calm     92 % 0 mm 0.0 W/m2 CLR
04:35 -14.4 °C -15.1 °C 34750.5 hPa Calm     92 % 0 mm 0.0 W/m2 CLR
04:40 -14.4 °C -15.1 °C 34750.5 hPa Calm     92 % 0 mm 0.0 W/m2 CLR
04:45 -14.4 °C -15.1 °C 34750.5 hPa Calm     92 % 0 mm 0.0 W/m2 CLR
04:50 -14.4 °C -15.1 °C 34750.5 hPa Calm     92 % 0 mm 0.0 W/m2 CLR
04:55 -14.4 °C -15.1 °C 34750.5 hPa Calm     92 % 0 mm 0.0 W/m2 CLR
05:00 -14.7 °C -15.4 °C 34750.5 hPa Calm     92 % 0 mm 0.0 W/m2 CLR
05:05 -14.4 °C -15.1 °C 34750.5 hPa Calm     92 % 0 mm 0.0 W/m2 CLR
05:10 -14.4 °C -15.1 °C 34750.5 hPa Calm     92 % 0 mm 0.0 W/m2 CLR
05:15 -14.4 °C -15.1 °C 34750.5 hPa Calm     92 % 0 mm 0.0 W/m2 CLR
05:20 -14.4 °C -15.1 °C 34750.5 hPa Calm     92 % 0 mm 0.0 W/m2 CLR
05:25 -14.4 °C -15.1 °C 34750.5 hPa Calm     92 % 0 mm 0.0 W/m2 CLR
05:30 -14.4 °C -15.1 °C 34750.5 hPa Calm     92 % 0 mm 0.0 W/m2 CLR
05:35 -14.4 °C -15.1 °C 34750.5 hPa Calm     92 % 0 mm 0.0 W/m2 CLR
05:40 -14.4 °C -15.1 °C 34750.5 hPa Calm     92 % 0 mm 0.0 W/m2 CLR
05:45 -14.4 °C -15.1 °C 34750.5 hPa Calm     92 % 0 mm 0.0 W/m2 CLR
05:50 -14.4 °C -15.1 °C 34750.5 hPa Calm     92 % 0 mm 0.0 W/m2 CLR
05:55 -14.4 °C -15.1 °C 34750.5 hPa Calm     92 % 0 mm 0.0 W/m2 CLR
06:00 -14.4 °C -15.1 °C 34750.5 hPa Calm     92 % 0 mm 0.0 W/m2 CLR
06:05 -14.4 °C -15.1 °C 34760.7 hPa Calm     92 % 0 mm 0.0 W/m2 CLR
06:10 -14.4 °C -15.1 °C 34760.7 hPa Calm     92 % 0 mm 0.0 W/m2 CLR
06:15 -14.4 °C -15.1 °C 34750.5 hPa Calm     92 % 0 mm 0.0 W/m2 CLR
06:20 -14.4 °C -15.1 °C 34760.7 hPa Calm     92 % 0 mm 0.0 W/m2 CLR
06:25 -14.4 °C -15.1 °C 34760.7 hPa Calm     92 % 0 mm 0.0 W/m2 CLR
06:30 -14.4 °C -15.1 °C 34760.7 hPa Calm     92 % 0 mm 0.0 W/m2 CLR
06:35 -14.4 °C -15.1 °C 34760.7 hPa Calm     92 % 0 mm 0.0 W/m2 CLR
06:40 -14.7 °C -15.4 °C 34750.5 hPa Calm     92 % 0 mm 0.0 W/m2 CLR
06:45 -14.4 °C -15.1 °C 34750.5 hPa Calm     92 % 0 mm 0.0 W/m2 CLR
06:50 -14.4 °C -15.1 °C 34750.5 hPa Calm     92 % 0 mm 0.0 W/m2 CLR
06:55 -14.4 °C -15.1 °C 34750.5 hPa Calm     92 % 0 mm 0.0 W/m2 CLR
07:00 -14.4 °C -15.1 °C 34750.5 hPa Calm     92 % 0 mm 0.0 W/m2 CLR
07:05 -14.4 °C -15.1 °C 34750.5 hPa Calm     92 % 0 mm 0.0 W/m2 CLR
07:10 -14.4 °C -15.1 °C 34750.5 hPa Calm     92 % 0 mm 0.0 W/m2 CLR
07:15 -14.4 °C -15.1 °C 34750.5 hPa Calm     92 % 0 mm 0.0 W/m2 CLR
07:20 -14.4 °C -15.1 °C 34750.5 hPa Calm     92 % 0 mm 0.0 W/m2 CLR
07:25 -14.4 °C -15.1 °C 34750.5 hPa Calm     92 % 0 mm 0.0 W/m2 CLR
07:30 -14.4 °C -15.1 °C 34760.7 hPa Calm     92 % 0 mm 0.0 W/m2 CLR
07:35 -14.4 °C -15.1 °C 34760.7 hPa Calm     92 % 0 mm 0.0 W/m2 CLR
07:40 -14.4 °C -15.1 °C 34760.7 hPa Calm     92 % 0 mm 0.0 W/m2 CLR
07:45 -14.4 °C -15.1 °C 34760.7 hPa Calm     92 % 0 mm 0.0 W/m2 OVC
07:50 -14.4 °C -15.1 °C 34760.7 hPa Calm     92 % 0 mm 0.0 W/m2 OVC
07:55 -14.4 °C -15.1 °C 34760.7 hPa Calm     92 % 0 mm 0.0 W/m2 OVC
08:00 -14.4 °C -15.1 °C 34760.7 hPa Calm     92 % 0 mm 0.0 W/m2 OVC
08:05 -14.1 °C -14.8 °C 34760.7 hPa Calm     92 % 0 mm 5.0 W/m2 OVC
08:10 -14.1 °C -14.8 °C 34750.5 hPa Calm     92 % 0 mm 9.0 W/m2 BKN
08:15 -14.1 °C -14.8 °C 34750.5 hPa Calm     92 % 0 mm 12.0 W/m2 BKN
08:20 -14.1 °C -14.8 °C 34760.7 hPa Calm     92 % 0 mm 18.0 W/m2 BKN
08:25 -14.1 °C -14.8 °C 34760.7 hPa Calm     92 % 0 mm 21.0 W/m2 BKN
08:30 -14.1 °C -14.8 °C 34760.7 hPa Calm     92 % 0 mm 25.0 W/m2 BKN
08:35 -14.1 °C -14.8 °C 34760.7 hPa Calm     92 % 0 mm 32.0 W/m2 BKN
08:40 -14.1 °C -14.8 °C 34760.7 hPa Calm     92 % 0 mm 39.0 W/m2 BKN
08:45 -14.1 °C -14.8 °C 34774.2 hPa Calm     92 % 0 mm 44.0 W/m2 BKN
08:50 -13.8 °C -14.4 °C 34774.2 hPa Calm     92 % 0 mm 47.0 W/m2 SCT
08:55 -13.8 °C -14.4 °C 34774.2 hPa Calm     92 % 0 mm 51.0 W/m2 SCT
09:00 -13.8 °C -14.4 °C 34774.2 hPa Calm     92 % 0 mm 53.0 W/m2 SCT
09:05 -13.8 °C -14.4 °C 34774.2 hPa Calm     92 % 0 mm 54.0 W/m2 SCT
09:10 -13.8 °C -14.4 °C 34774.2 hPa Calm     92 % 0 mm 58.0 W/m2 SCT
09:15 -13.4 °C -14.1 °C 34774.2 hPa Calm     92 % 0 mm 65.0 W/m2 SCT
09:20 -13.4 °C -14.1 °C 34774.2 hPa Calm     92 % 0 mm 70.0 W/m2 SCT
09:25 -13.4 °C -14.1 °C 34774.2 hPa Calm     92 % 0 mm 72.0 W/m2 FEW
09:30 -13.2 °C -13.8 °C 34774.2 hPa Calm     92 % 0 mm 69.0 W/m2 FEW
09:36 -13.2 °C -13.8 °C 34774.2 hPa Calm     92 % 0 mm 67.0 W/m2 FEW
09:41 -13.2 °C -13.8 °C 34774.2 hPa Calm     92 % 0 mm 70.0 W/m2 FEW
09:46 -13.2 °C -13.7 °C 34774.2 hPa Calm     93 % 0 mm 77.0 W/m2 FEW
09:51 -13.2 °C -13.8 °C 34774.2 hPa Calm     92 % 0 mm 79.0 W/m2 FEW
09:56 -12.8 °C -13.5 °C 34774.2 hPa Calm     92 % 0 mm 70.0 W/m2 FEW
10:01 -12.8 °C -13.5 °C 34774.2 hPa Calm     92 % 0 mm 67.0 W/m2 FEW
10:06 -12.8 °C -13.5 °C 34774.2 hPa Calm     92 % 0 mm 77.0 W/m2 FEW
10:11 -12.8 °C -13.5 °C 34774.2 hPa Calm     92 % 0 mm 100.0 W/m2 FEW
10:16 -12.6 °C -13.3 °C 34774.2 hPa Calm     91 % 0 mm 132.0 W/m2 CLR
10:21 -12.6 °C -13.2 °C 34774.2 hPa Calm     92 % 0 mm 162.0 W/m2 CLR
10:26 -12.6 °C -13.2 °C 34774.2 hPa Calm     92 % 0 mm 176.0 W/m2 CLR
10:31 -12.2 °C -13 °C 34774.2 hPa Calm     91 % 0 mm 188.0 W/m2 CLR
10:36 -11.9 °C -12.7 °C 34774.2 hPa Calm     91 % 0 mm 216.0 W/m2 CLR
10:41 -11.9 °C -12.7 °C 34774.2 hPa Calm     91 % 0 mm 250.0 W/m2 CLR
10:46 -11.9 °C -12.7 °C 34774.2 hPa Calm     91 % 0 mm 278.0 W/m2 CLR
10:51 -11.6 °C -12.4 °C 34774.2 hPa Calm     90 % 0 mm 251.0 W/m2 CLR
10:56 -11.6 °C -12.4 °C 34774.2 hPa Calm     90 % 0 mm 265.0 W/m2 CLR
11:01 -11.3 °C -12.3 °C 34774.2 hPa Calm     89 % 0 mm 279.0 W/m2 CLR
11:06 -11.3 °C -12.4 °C 34774.2 hPa Calm     88 % 0 mm 250.0 W/m2 CLR
11:11 -11 °C -12.2 °C 34774.2 hPa Calm     87 % 0 mm 255.0 W/m2 CLR
11:16 -11 °C -12.3 °C 34774.2 hPa Calm     86 % 0 mm 274.0 W/m2 CLR
11:21 -10.7 °C -12.1 °C 34784.4 hPa Calm     85 % 0 mm 288.0 W/m2 CLR
11:26 -10.7 °C -12.3 °C 34784.4 hPa Calm     83 % 0 mm 262.0 W/m2 CLR
11:31 -10.4 °C -12.1 °C 34784.4 hPa Calm     82 % 0 mm 244.0 W/m2 CLR
11:36 -10.4 °C -12.1 °C 34784.4 hPa Calm     81 % 0 mm 230.0 W/m2 CLR
11:41 -10.4 °C -12.3 °C 34784.4 hPa Calm     79 % 0 mm 234.0 W/m2 CLR
11:46 -10.1 °C -12.2 °C 34774.2 hPa Calm     78 % 0 mm 301.0 W/m2 CLR
11:51 -10.1 °C -12.2 °C 34774.2 hPa Calm     78 % 0 mm 309.0 W/m2 CLR
11:56 -10.1 °C -12.1 °C 34774.2 hPa Calm     79 % 0 mm 230.0 W/m2 CLR
12:01 -10.1 °C -12.3 °C 34774.2 hPa Calm     77 % 0 mm 193.0 W/m2 CLR
12:06 -10.1 °C -12.3 °C 34774.2 hPa Calm     77 % 0 mm 190.0 W/m2 CLR
12:11 -9.8 °C -12 °C 34774.2 hPa Calm     77 % 0 mm 216.0 W/m2 CLR
12:16 -9.8 °C -12 °C 34774.2 hPa Calm     77 % 0 mm 223.0 W/m2 CLR
12:21 -9.8 °C -12.1 °C 34774.2 hPa Calm     76 % 0 mm 213.0 W/m2 CLR
12:24 -10.1 °C -12.3 °C 34760.7 hPa Calm     77 % 0 mm 209.0 W/m2 CLR
12:29 -10.1 °C -12.4 °C 34760.7 hPa Calm     76 % 0 mm 193.0 W/m2 CLR
12:34 -10.1 °C -12.4 °C 34760.7 hPa Calm     76 % 0 mm 186.0 W/m2 CLR
12:39 -9.8 °C -12 °C 34774.2 hPa Calm     77 % 0 mm 193.0 W/m2 CLR
12:44 -9.8 °C -11.8 °C 34774.2 hPa Calm     78 % 0 mm 218.0 W/m2 CLR
12:49 -9.8 °C -11.8 °C 34760.7 hPa Calm     78 % 0 mm 218.0 W/m2 CLR
12:54 -9.8 °C -11.8 °C 34760.7 hPa Calm     78 % 0 mm 199.0 W/m2 CLR
12:59 -9.8 °C -11.8 °C 34760.7 hPa Calm     78 % 0 mm 188.0 W/m2 CLR
13:04 -9.8 °C -11.8 °C 34760.7 hPa Calm     79 % 0 mm 197.0 W/m2 CLR
13:09 -9.8 °C -11.8 °C 34750.5 hPa Calm     78 % 0 mm 243.0 W/m2 CLR
13:14 -9.4 °C -11.7 °C 34750.5 hPa Calm     77 % 0 mm 448.0 W/m2 CLR
13:19 -9.4 °C -11.8 °C 34750.5 hPa Calm     76 % 0 mm 374.0 W/m2 CLR
13:24 -9.4 °C -11.9 °C 34740.4 hPa Calm     75 % 0 mm 290.0 W/m2 CLR
13:29 -9.4 °C -12 °C 34740.4 hPa Calm     74 % 0 mm 283.0 W/m2 CLR
13:34 -9.4 °C -12.1 °C 34740.4 hPa Calm     73 % 0 mm 381.0 W/m2 CLR
13:39 -9.4 °C -12 °C 34726.8 hPa Calm     74 % 0 mm 626.0 W/m2 CLR
13:44 -8.8 °C -11.6 °C 34726.8 hPa Calm     72 % 0 mm 533.0 W/m2 CLR
13:49 -8.8 °C -11.8 °C 34726.8 hPa Calm     71 % 0 mm 496.0 W/m2 CLR
13:54 -8.8 °C -11.8 °C 34716.7 hPa East 6 km/h 6 km/h 71 % 0 mm 441.0 W/m2 CLR
13:59 -8.8 °C -11.6 °C 34716.7 hPa East 6 km/h   72 % 0 mm 517.0 W/m2 CLR
14:04 -8.8 °C -11.8 °C 34716.7 hPa Calm     71 % 0 mm 357.0 W/m2 CLR
14:09 -8.8 °C -11.9 °C 34716.7 hPa Calm     70 % 0 mm 403.0 W/m2 CLR
14:14 -8.5 °C -11.4 °C 34716.7 hPa Calm   2.1 km/h 71 % 0 mm 418.0 W/m2 CLR
14:19 -8.2 °C -11.3 °C 34716.7 hPa South 9 km/h 9 km/h 70 % 0 mm 438.0 W/m2 CLR
14:24 -8.2 °C -11.3 °C 34703.1 hPa East 6 km/h   70 % 0 mm 357.0 W/m2 CLR
14:29 -8.2 °C -11.3 °C 34703.1 hPa East 6 km/h 6 km/h 70 % 0 mm 475.0 W/m2 CLR
14:34 -8.5 °C -11.7 °C 34703.1 hPa Calm     69 % 0 mm 397.0 W/m2 CLR
14:39 -8.2 °C -11.5 °C 34693 hPa South 9 km/h 9 km/h 68 % 0 mm 575.0 W/m2 CLR
14:44 -7.9 °C -11.2 °C 34693 hPa Calm     68 % 0 mm 552.0 W/m2 CLR
14:49 -7.9 °C -11.2 °C 34682.8 hPa ENE 11.9 km/h 11.9 km/h 68 % 0 mm 415.0 W/m2 CLR
14:54 -7.9 °C -11.3 °C 34682.8 hPa East 9 km/h 9 km/h 67 % 0 mm 461.0 W/m2 CLR
14:59 -7.9 °C -11.3 °C 34682.8 hPa Calm     67 % 0 mm 323.0 W/m2 CLR
15:04 -7.9 °C -11.5 °C 34682.8 hPa Calm     66 % 0 mm 441.0 W/m2 CLR
15:10 -8.2 °C -11.9 °C 34682.8 hPa Calm     65 % 0 mm 348.0 W/m2 CLR
15:15 -8.2 °C -11.9 °C 34682.8 hPa NNE 6 km/h 6 km/h 65 % 0 mm 429.0 W/m2 CLR
15:20 -8.2 °C -11.9 °C 34682.8 hPa East 9 km/h 9 km/h 65 % 0 mm 359.0 W/m2 CLR
15:25 -7.9 °C -11.6 °C 34682.8 hPa Calm   1.3 km/h 65 % 0 mm 338.0 W/m2 CLR
15:30 -7.9 °C -11.6 °C 34682.8 hPa Calm     65 % 0 mm 302.0 W/m2 CLR
15:35 -8.2 °C -11.9 °C 34669.3 hPa ESE 7.7 km/h 7.7 km/h 65 % 0 mm 285.0 W/m2 CLR
15:40 -8.2 °C -12.1 °C 34669.3 hPa East 6 km/h   64 % 0 mm 237.0 W/m2 CLR
15:45 -8.2 °C -11.9 °C 34669.3 hPa NE 11.9 km/h 11.9 km/h 65 % 0 mm 206.0 W/m2 CLR
15:50 -8.5 °C -12.1 °C 34669.3 hPa ENE 11.9 km/h 11.9 km/h 66 % 0 mm 183.0 W/m2 CLR
15:55 -8.5 °C -11.9 °C 34669.3 hPa East 6 km/h   67 % 0 mm 163.0 W/m2 CLR
16:00 -8.5 °C -11.9 °C 34669.3 hPa Calm     67 % 0 mm 163.0 W/m2 CLR
16:05 -8.5 °C -11.9 °C 34669.3 hPa Calm     67 % 0 mm 176.0 W/m2 CLR
16:10 -8.5 °C -11.9 °C 34669.3 hPa ENE 9 km/h 9 km/h 67 % 0 mm 186.0 W/m2 CLR
16:15 -8.5 °C -11.9 °C 34669.3 hPa ENE 10.3 km/h 10.3 km/h 67 % 0 mm 200.0 W/m2 CLR
16:20 -8.5 °C -11.9 °C 34669.3 hPa ENE 3.1 km/h   67 % 0 mm 211.0 W/m2 CLR
16:25 -8.5 °C -11.9 °C 34669.3 hPa ENE 15 km/h 15 km/h 67 % 0 mm 188.0 W/m2 CLR
16:30 -8.5 °C -11.9 °C 34669.3 hPa East 15 km/h 15 km/h 67 % 0 mm 181.0 W/m2 CLR
16:35 -8.5 °C -12.1 °C 34669.3 hPa NE 9 km/h 9 km/h 66 % 0 mm 176.0 W/m2 CLR
16:40 -8.5 °C -12.1 °C 34669.3 hPa East 9 km/h 9 km/h 66 % 0 mm 176.0 W/m2 CLR
16:45 -8.5 °C -12.1 °C 34669.3 hPa Calm     66 % 0 mm 185.0 W/m2 CLR
16:50 -8.5 °C -12.1 °C 34659.1 hPa Calm     66 % 0 mm 188.0 W/m2 CLR
16:55 -8.5 °C -12.2 °C 34659.1 hPa ENE 6 km/h   65 % 0 mm 163.0 W/m2 CLR
17:00 -8.5 °C -12.1 °C 34659.1 hPa ENE 9 km/h 9 km/h 66 % 0 mm 151.0 W/m2 CLR
17:05 -8.5 °C -12.1 °C 34669.3 hPa Calm     66 % 0 mm 132.0 W/m2 CLR
17:10 -8.8 °C -12.2 °C 34659.1 hPa Calm   1.6 km/h 67 % 0 mm 116.0 W/m2 CLR
17:15 -8.8 °C -12.2 °C 34659.1 hPa ENE 10.3 km/h 10.3 km/h 67 % 0 mm 123.0 W/m2 CLR
17:20 -8.8 °C -12.1 °C 34659.1 hPa Calm     68 % 0 mm 114.0 W/m2 CLR
17:25 -8.8 °C -12.1 °C 34659.1 hPa Calm     68 % 0 mm 134.0 W/m2 CLR
17:30 -8.8 °C -12.1 °C 34659.1 hPa Calm     68 % 0 mm 91.0 W/m2 CLR
17:35 -8.8 °C -12.1 °C 34659.1 hPa Calm     68 % 0 mm 86.0 W/m2 CLR
17:40 -8.8 °C -12.1 °C 34659.1 hPa Calm     68 % 0 mm 81.0 W/m2 FEW
17:45 -8.8 °C -12 °C 34659.1 hPa Calm     69 % 0 mm 76.0 W/m2 FEW
17:50 -9.1 °C -12.3 °C 34659.1 hPa Calm     69 % 0 mm 70.0 W/m2 FEW
17:55 -9.1 °C -12.3 °C 34659.1 hPa Calm     69 % 0 mm 62.0 W/m2 SCT
18:00 -9.1 °C -12.2 °C 34659.1 hPa Calm     70 % 0 mm 54.0 W/m2 SCT
18:05 -9.1 °C -12.2 °C 34659.1 hPa Calm     70 % 0 mm 47.0 W/m2 SCT
18:10 -9.1 °C -12.2 °C 34659.1 hPa Calm     70 % 0 mm 39.0 W/m2 BKN
18:15 -9.4 °C -12.4 °C 34659.1 hPa Calm     70 % 0 mm 26.0 W/m2 BKN
18:20 -9.4 °C -12.3 °C 34659.1 hPa Calm     71 % 0 mm 16.0 W/m2 BKN
18:25 -9.4 °C -12.2 °C 34659.1 hPa Calm     72 % 0 mm 9.0 W/m2 BKN
18:30 -9.4 °C -12.2 °C 34659.1 hPa Calm     72 % 0 mm 5.0 W/m2 OVC
18:35 -9.8 °C -12.6 °C 34659.1 hPa Calm     72 % 0 mm 0.0 W/m2 OVC
18:40 -10.1 °C -12.8 °C 34659.1 hPa Calm     72 % 0 mm 0.0 W/m2 OVC
18:45 -10.1 °C -12.7 °C 34659.1 hPa Calm     73 % 0 mm 0.0 W/m2 CLR
18:50 -10.1 °C -12.7 °C 34659.1 hPa Calm     73 % 0 mm 0.0 W/m2 CLR
18:55 -10.4 °C -12.9 °C 34659.1 hPa Calm     74 % 0 mm 0.0 W/m2 CLR
19:00 -10.4 °C -12.9 °C 34659.1 hPa Calm     74 % 0 mm 0.0 W/m2 CLR
19:05 -10.7 °C -13.1 °C 34659.1 hPa Calm     75 % 0 mm 0.0 W/m2 CLR
19:10 -10.7 °C -12.9 °C 34659.1 hPa Calm     76 % 0 mm 0.0 W/m2 CLR
19:15 -10.7 °C -12.9 °C 34659.1 hPa Calm     76 % 0 mm 0.0 W/m2 CLR
19:20 -10.7 °C -12.9 °C 34669.3 hPa Calm     77 % 0 mm 0.0 W/m2 CLR
19:25 -10.7 °C -12.9 °C 34669.3 hPa Calm     77 % 0 mm 0.0 W/m2 CLR
19:30 -10.7 °C -12.7 °C 34669.3 hPa Calm     78 % 0 mm 0.0 W/m2 CLR
19:35 -10.7 °C -12.7 °C 34669.3 hPa Calm     78 % 0 mm 0.0 W/m2 CLR
19:40 -10.7 °C -12.7 °C 34669.3 hPa Calm     78 % 0 mm 0.0 W/m2 CLR
19:45 -11 °C -12.9 °C 34669.3 hPa Calm     79 % 0 mm 0.0 W/m2 CLR
19:50 -11 °C -12.9 °C 34669.3 hPa Calm     79 % 0 mm 0.0 W/m2 CLR
19:55 -11 °C -12.8 °C 34659.1 hPa Calm     80 % 0 mm 0.0 W/m2 CLR
20:00 -11 °C -12.8 °C 34659.1 hPa Calm     80 % 0 mm 0.0 W/m2 CLR
20:05 -11 °C -12.7 °C 34659.1 hPa Calm     81 % 0 mm 0.0 W/m2 CLR
20:10 -11 °C -12.7 °C 34659.1 hPa Calm     81 % 0 mm 0.0 W/m2 CLR
20:15 -11 °C -12.7 °C 34659.1 hPa Calm     82 % 0 mm 0.0 W/m2 CLR
20:20 -11.3 °C -12.9 °C 34659.1 hPa Calm     82 % 0 mm 0.0 W/m2 CLR
20:25 -11.3 °C -12.9 °C 34659.1 hPa Calm     82 % 0 mm 0.0 W/m2 CLR
20:30 -11.6 °C -13.2 °C 34659.1 hPa Calm     83 % 0 mm 0.0 W/m2 CLR
20:35 -11.6 °C -13.2 °C 34659.1 hPa Calm     83 % 0 mm 0.0 W/m2 CLR
20:40 -11.9 °C -13.4 °C 34659.1 hPa Calm     83 % 0 mm 0.0 W/m2 CLR
20:45 -11.9 °C -13.4 °C 34659.1 hPa Calm     84 % 0 mm 0.0 W/m2 CLR
20:50 -11.9 °C -13.4 °C 34659.1 hPa Calm     84 % 0 mm 0.0 W/m2 CLR
20:55 -12.2 °C -13.7 °C 34659.1 hPa Calm     84 % 0 mm 0.0 W/m2 CLR
21:00 -12.2 °C -13.6 °C 34659.1 hPa Calm     85 % 0 mm 0.0 W/m2 CLR
21:05 -11.9 °C -13.3 °C 34659.1 hPa Calm     85 % 0 mm 0.0 W/m2 CLR
21:10 -11.9 °C -13.2 °C 34659.1 hPa Calm     86 % 0 mm 0.0 W/m2 CLR
21:15 -11.9 °C -13.2 °C 34659.1 hPa Calm     86 % 0 mm 0.0 W/m2 CLR
21:20 -11.9 °C -13.2 °C 34669.3 hPa Calm     86 % 0 mm 0.0 W/m2 CLR
21:25 -12.2 °C -13.4 °C 34669.3 hPa Calm     86 % 0 mm 0.0 W/m2 CLR
21:30 -12.2 °C -13.4 °C 34659.1 hPa Calm     86 % 0 mm 0.0 W/m2 CLR
21:35 -12.2 °C -13.4 °C 34669.3 hPa Calm     86 % 0 mm 0.0 W/m2 CLR
21:40 -12.6 °C -13.8 °C 34659.1 hPa Calm     86 % 0 mm 0.0 W/m2 CLR
21:45 -12.6 °C -13.7 °C 34659.1 hPa Calm     87 % 0 mm 0.0 W/m2 CLR
21:50 -12.6 °C -13.7 °C 34659.1 hPa Calm     87 % 0 mm 0.0 W/m2 CLR
21:55 -12.6 °C -13.7 °C 34669.3 hPa Calm     87 % 0 mm 0.0 W/m2 CLR
22:00 -12.6 °C -13.7 °C 34659.1 hPa Calm     87 % 0 mm 0.0 W/m2 CLR
22:05 -12.6 °C -13.7 °C 34659.1 hPa Calm     87 % 0 mm 0.0 W/m2 CLR
22:10 -12.6 °C -13.6 °C 34669.3 hPa Calm     88 % 0 mm 0.0 W/m2 CLR
22:15 -12.6 °C -13.6 °C 34669.3 hPa Calm     88 % 0 mm 0.0 W/m2 CLR
22:20 -12.6 °C -13.6 °C 34669.3 hPa Calm     88 % 0 mm 0.0 W/m2 CLR
22:25 -12.6 °C -13.6 °C 34669.3 hPa Calm     88 % 0 mm 0.0 W/m2 CLR
22:30 -12.8 °C -13.9 °C 34669.3 hPa Calm     88 % 0 mm 0.0 W/m2 CLR
22:35 -12.8 °C -13.9 °C 34669.3 hPa Calm     88 % 0 mm 0.0 W/m2 CLR
22:40 -12.8 °C -13.9 °C 34669.3 hPa Calm     88 % 0 mm 0.0 W/m2 CLR
22:46 -12.8 °C -13.9 °C 34669.3 hPa Calm     88 % 0 mm 0.0 W/m2 CLR
22:51 -12.8 °C -13.9 °C 34669.3 hPa Calm     88 % 0 mm 0.0 W/m2 CLR
22:56 -12.8 °C -13.9 °C 34669.3 hPa Calm     88 % 0 mm 0.0 W/m2 CLR
23:01 -12.8 °C -13.9 °C 34669.3 hPa Calm     88 % 0 mm 0.0 W/m2 CLR
23:06 -12.8 °C -13.9 °C 34669.3 hPa Calm     88 % 0 mm 0.0 W/m2 CLR
23:11 -12.8 °C -13.9 °C 34669.3 hPa Calm     88 % 0 mm 0.0 W/m2 CLR
23:16 -12.8 °C -13.9 °C 34669.3 hPa Calm     88 % 0 mm 0.0 W/m2 CLR
23:21 -12.8 °C -13.9 °C 34669.3 hPa Calm     88 % 0 mm 0.0 W/m2 CLR
23:26 -12.8 °C -13.8 °C 34669.3 hPa Calm     89 % 0 mm 0.0 W/m2 CLR
23:31 -12.8 °C -13.9 °C 34669.3 hPa Calm     88 % 0 mm 0.0 W/m2 CLR
23:36 -12.8 °C -13.8 °C 34669.3 hPa Calm     89 % 0 mm 0.0 W/m2 CLR
23:41 -12.8 °C -13.8 °C 34669.3 hPa Calm     89 % 0 mm 0.0 W/m2 CLR
23:46 -12.8 °C -13.8 °C 34669.3 hPa Calm     89 % 0 mm 0.0 W/m2 CLR
23:51 -12.8 °C -13.8 °C 34669.3 hPa Calm     89 % 0 mm 0.0 W/m2 CLR
23:56 -12.8 °C -13.8 °C 34669.3 hPa Calm     89 % 0 mm 0.0 W/m2 CLR
Lo Temps de Massalio
Compliments of Weather Underground - 1.25 mb